Location: ?????????
(38.5999°N, 22.7695°E)
Time: 11:52:43
(UTC+00:00)

CZ-2C R/B - Pass Details

Date: 23 May 2024
Orbit: 665 x 780 km, 98.4° (Epoch: 19 June)

Event Time Altitude Azimuth Distance (km) Brightness Sun altitude
Rises 01:34:26 0° 20° (NNE) 3,109 6.9 -16.1°
Reaches altitude 10° 01:36:50 10° 27° (NNE) 2,168 6.0 -15.7°
Maximum altitude 01:41:20 42° 99° (E) 972 3.3 -15.1°
Drops below altitude 10° 01:45:40 10° 170° (S) 2,100 4.5 -14.5°
Enters shadow 01:46:29 - 173° (S) 2,416 4.8 -14.4°
